Location: *
(51.8167°N, 12.5000°E)
Time: 01:58:19
(UTC+00:00)

Cosmos 2082 Rocket - Pass Details

Date: 16 September 2019
Orbit: 831 x 855 km, 71.0° (Epoch: 15 October)

Event Time Altitude Azimuth Distance (km) Brightness Sun altitude
Rises 22:56:19 0° 330° (NNW) 3,435 6.2 -35.7°
Reaches altitude 10° 22:59:10 10° 342° (NNW) 2,498 5.4 -35.7°
Maximum altitude 23:04:00 27° 40° (NE) 1,588 3.9 -35.7°
Enters shadow 23:04:34 27° 49° (NE) 1,603 3.9 -35.7°
